Dewpoint
56 56 57 57 58 58 59 58 59 60 60 61 60 61 61 60 60 58 59 59 59 59 60 61 59 59 60 61 61 59 57 36 30 30 32 35 50 56 57 58 58 59 54 21 18 15 10 10 10 13 16 16 19 19 21 21 25 26 16 13 12 11 9 11 6 6 12 6 12 17 18 18 17 20 21 22 22 22 22 22 22 24 24 23 21 24 26 28
57 57 57 57 57 58 58 59 59 59 60 60 60 61 60 60 59 60 60 59 60 60 60 61 60 60 59 59 59 58 46 40 34 27 31 46 55 56 58 57 58 57 47 16 12 13 10 9 10 13 15 10 19 14 22 19 20 21 15 15 5 11 12 14 9 6 9 10 13 18 19 19 17 18 20 19 17 20 17 18 21 21 22 23 24 24 25 29
58 58 57 57 57 57 58 58 59 59 59 59 60 61 61 60 61 60 58 59 60 60 61 62 61 59 57 59 57 55 40 40 36 26 28 54 55 56 57 56 56 54 23 17 14 11 10 10 10 10 13 9 14 13 18 12 22 13 22 11 14 18 15 17 15 11 15 16 16 17 18 19 19 19 22 18 16 18 16 12 17 17 14 15 18 23 37 39
58 58 58 57 57 57 58 58 59 58 58 59 60 60 60 61 60 59 58 59 60 60 57 54 56 55 59 59 57 49 43 45 28 25 31 55 55 56 55 56 54 45 24 18 16 17 18 17 15 11 12 12 16 18 14 15 17 15 13 11 11 16 9 13 16 14 15 17 17 17 18 18 19 20 20 19 14 9 10 13 13 11 12 14 17 27 33 30
58 58 58 57 57 58 57 58 58 58 58 59 59 60 61 60 60 59 59 59 59 59 60 60 60 57 58 58 51 45 42 23 27 30 36 54 55 55 54 53 52 27 22 20 20 27 21 25 32 18 14 8 15 13 11 15 20 18 16 18 16 18 12 17 18 23 18 18 18 18 17 15 19 19 18 18 15 10 9 10 14 14 14 17 19 22 28 26
58 57 57 57 57 57 57 57 58 58 57 58 59 59 60 60 60 59 58 59 59 59 58 60 57 55 55 51 44 40 29 14 33 32 52 53 55 52 53 49 48 27 20 15 12 15 12 14 21 20 14 13 13 8 11 16 16 6 14 17 19 18 13 19 18 21 18 17 16 16 17 19 18 17 19 19 17 16 15 17 18 18 21 22 24 26 26 26
57 57 57 57 57 57 57 57 57 57 58 58 58 59 59 61 60 58 58 59 60 60 59 59 61 54 53 53 43 43 33 30 34 38 49 52 53 48 50 42 39 26 21 24 23 15 14 12 13 15 16 14 13 13 15 14 15 9 10 17 17 19 17 20 19 24 19 16 14 19 22 18 18 15 21 19 19 19 19 20 19 20 22 24 23 25 26 26
57 56 57 57 57 57 57 57 58 59 58 58 58 59 59 61 59 58 58 59 60 59 59 58 59 59 52 51 45 34 35 32 29 34 47 50 43 38 42 38 32 36 31 24 27 32 29 18 10 16 15 8 9 10 12 12 13 12 13 18 19 20 21 22 22 24 22 20 22 24 21 17 16 16 18 16 17 18 19 21 21 22 23 23 23 23 24 25
56 56 56 56 57 57 57 58 58 58 58 58 58 59 61 60 59 58 59 59 59 57 58 58 58 55 54 54 41 30 29 35 32 35 38 38 38 34 35 29 31 27 30 31 34 33 35 25 24 24 9 10 14 10 15 14 4 17 16 19 19 19 19 20 20 19 21 21 22 18 14 16 17 19 18 15 14 20 21 21 22 23 22 22 22 22 23 23
56 56 56 56 56 57 57 58 58 58 59 58 59 60 61 59 59 58 58 58 58 56 56 55 57 53 55 50 44 24 30 42 41 37 37 39 38 34 34 34 31 26 27 28 36 39 34 24 25 23 20 16 17 14 17 16 12 20 19 18 18 17 17 19 20 17 18 19 25 22 15 16 22 21 10 17 20 22 20 20 22 22 21 20 21 22 23 22
56 56 56 56 56 57 58 58 59 59 59 59 60 60 58 59 59 58 58 56 56 57 57 54 55 55 46 46 33 24 38 45 38 38 39 40 38 35 34 34 33 30 29 34 31 33 30 28 35 34 34 17 22 18 18 20 18 17 16 15 16 16 17 17 18 18 18 16 19 17 17 24 21 20 14 14 20 22 19 18 20 21 21 20 21 22 25 24
56 56 56 56 56 57 57 58 58 59 59 60 58 58 58 58 58 58 56 57 56 55 57 53 51 45 42 36 31 31 42 38 39 37 40 42 39 39 40 37 33 34 33 28 33 37 40 35 39 39 20 25 15 14 16 19 16 16 16 7 15 15 14 18 17 19 19 16 19 16 16 23 23 15 17 19 19 21 21 19 18 18 18 20 22 20 20 21
55 56 56 56 56 57 57 58 58 59 59 58 57 58 58 58 59 58 59 58 59 57 55 54 51 55 46 33 32 43 44 36 40 40 41 41 44 42 43 42 39 37 36 29 32 36 37 37 37 27 34 23 16 18 15 19 17 17 15 14 12 13 13 17 20 20 16 17 18 16 9 1 13 16 16 16 17 18 18 17 17 17 18 19 20 19 19 22
55 56 56 56 56 57 57 57 57 58 59 57 56 57 57 58 58 57 57 57 56 59 54 53 54 48 40 32 37 44 43 42 42 38 39 40 40 41 38 43 42 41 42 41 40 38 38 34 37 35 36 29 19 25 17 19 18 16 16 16 16 13 10 19 22 19 14 17 17 15 11 8 10 8 15 17 25 17 16 16 17 17 18 20 25 24 22 19
55 55 55 56 56 56 57 57 57 57 58 55 54 54 56 56 57 57 56 53 55 56 59 55 54 48 35 33 45 48 52 43 35 38 42 40 40 35 36 42 40 42 41 41 39 41 42 42 38 31 24 33 28 26 19 17 18 18 11 13 17 14 14 16 20 19 18 19 20 16 13 9 9 11 14 18 20 19 17 16 17 17 18 19 21 19 20 19
55 55 56 56 56 56 56 57 56 57 57 56 52 52 53 56 57 56 55 55 53 52 55 56 44 41 34 33 36 49 44 35 32 38 40 43 40 39 41 44 44 40 43 36 40 42 43 39 32 30 28 31 28 22 21 17 19 18 14 15 12 16 14 15 18 20 21 19 20 16 11 12 10 13 14 15 16 21 17 16 17 17 18 19 18 21 22 23
55 55 55 55 55 56 56 56 56 55 56 56 57 55 53 54 56 56 54 49 47 49 52 39 47 46 29 40 46 38 37 38 38 40 42 42 41 40 44 44 42 45 41 44 44 47 40 37 32 32 34 26 25 28 14 16 7 15 20 12 20 12 14 12 17 19 23 19 17 17 16 15 14 14 16 17 18 18 18 17 18 19 20 20 23 22 20 21
54 54 55 54 55 55 56 56 55 55 56 56 56 57 56 54 51 54 52 51 51 49 46 49 45 38 29 47 30 34 41 42 41 39 41 40 41 41 40 37 39 40 45 36 41 35 36 30 37 22 27 27 26 21 18 8 10 13 15 15 15 17 15 15 17 19 19 19 17 17 17 16 16 16 16 17 19 19 19 20 21 20 20 20 22 22 21 22
54 54 54 54 55 55 56 56 54 55 56 57 56 56 52 53 53 46 43 47 47 36 31 31 36 28 26 30 41 43 42 41 43 41 38 40 42 41 44 42 41 38 30 31 28 37 34 30 34 28 23 23 21 25 19 19 21 20 22 17 18 18 18 17 18 20 20 18 18 17 15 13 15 17 19 19 20 20 19 19 22 25 24 22 21 23 24 27
54 54 54 55 55 55 55 56 55 53 54 48 54 44 49 37 43 40 40 40 36 36 37 38 39 36 39 39 37 39 43 43 37 38 40 41 44 40 40 39 40 37 36 27 32 29 34 27 25 23 22 23 25 25 25 23 23 24 23 22 18 19 20 20 20 19 21 19 17 16 17 17 18 19 18 18 21 21 21 21 24 24 28 30 26 23 26 27
54 54 54 54 55 55 56 55 53 53 53 54 54 48 30 47 43 29 32 34 36 39 40 37 39 38 35 38 40 40 37 35 39 38 38 40 40 37 34 36 34 27 28 31 30 32 37 26 24 25 26 24 23 26 27 25 24 22 21 22 20 22 19 19 20 20 20 19 17 19 19 20 19 18 18 19 19 18 18 20 21 20 20 21 25 26 27 23
53 53 53 54 53 54 55 55 52 50 50 49 52 43 38 43 41 42 42 28 34 40 42 38 40 37 37 37 39 39 38 35 38 37 41 42 39 34 33 37 35 26 31 32 33 29 27 23 25 27 28 28 27 27 26 25 23 23 21 23 21 20 22 21 19 20 21 21 16 19 17 18 18 17 16 17 17 18 21 22 21 22 24 23 23 26 27 27
52 52 53 52 53 54 55 56 51 49 47 45 43 39 37 42 41 41 46 31 30 35 41 40 36 38 37 39 39 40 35 32 31 37 37 42 37 35 36 31 30 30 34 36 27 27 26 25 27 26 26 27 26 26 25 26 25 23 24 22 19 22 20 13 20 20 21 20 19 19 19 20 18 17 18 19 18 21 26 27 27 27 24 22 18 21 26 26
53 53 53 53 52 53 55 53 52 49 42 44 42 41 41 41 42 40 44 32 32 27 35 35 35 37 35 34 36 37 37 32 34 32 39 41 35 35 32 33 28 29 26 31 34 28 25 29 29 28 27 28 23 24 24 22 22 26 25 22 20 21 22 23 19 22 22 21 22 19 21 21 19 12 10 15 20 25 30 25 24 26 29 29 30 29 31 23
53 53 53 53 52 54 54 49 45 41 42 46 43 40 39 41 41 42 42 27 31 29 37 38 38 34 34 39 43 34 35 37 32 34 38 39 37 37 31 33 32 24 27 29 32 27 25 28 29 29 27 27 25 24 24 25 21 22 23 23 21 22 21 22 21 21 21 22 20 17 17 17 22 20 17 18 17 14 19 22 21 22 25 27 22 25 30 34
51 51 53 53 52 53 53 45 34 40 49 42 40 43 38 39 41 40 39 26 19 24 38 27 37 30 40 35 39 39 38 32 33 36 39 38 40 35 34 29 33 25 27 30 26 26 25 28 28 27 26 27 27 23 24 25 23 21 20 23 24 22 22 21 21 23 18 18 24 21 23 16 24 21 20 20 19 17 20 23 21 21 24 23 24 23 22 24
51 49 52 53 51 49 40 38 37 37 32 30 42 41 42 42 40 41 23 23 16 21 26 31 33 32 36 35 34 37 24 26 39 36 34 37 35 36 35 28 30 30 28 26 29 24 27 27 24 25 26 26 24 22 23 22 23 22 25 24 23 23 23 22 23 23 24 22 24 23 19 14 14 21 21 22 20 17 18 18 19 22 23 23 20 21 23 24
50 50 52 53 49 44 33 36 36 36 29 38 41 40 39 40 41 35 33 9 4 31 27 33 31 42 37 34 40 32 30 34 28 32 35 36 38 36 37 31 31 31 29 30 21 25 28 27 24 25 23 23 21 23 25 23 22 24 23 26 25 24 23 23 23 21 22 20 19 20 24 20 21 23 21 19 17 17 20 20 20 19 23 22 25 23 26 26
50 50 51 50 51 46 45 41 45 40 40 38 38 40 40 40 39 32 21 4 14 26 36 31 37 32 38 38 37 34 34 35 26 31 36 39 37 35 27 30 31 29 31 32 23 25 27 29 26 25 25 21 23 24 24 24 23 26 25 29 26 26 25 23 19 18 17 21 18 20 20 18 15 20 19 18 17 18 19 19 20 23 21 24 23 25 25 26
49 48 50 50 50 52 41 42 42 42 39 39 41 40 42 38 34 29 8 -0 22 20 28 33 30 31 34 30 32 35 31 31 32 33 35 31 33 36 33 37 32 33 29 32 29 26 27 31 30 30 25 25 24 27 26 24 27 29 29 26 27 26 25 21 17 17 19 16 18 17 16 16 13 11 18 19 20 18 17 16 16 23 25 23 26 28 29 24
48 48 48 50 47 42 40 28 33 41 40 43 43 42 34 38 30 15 -1 10 32 28 31 34 30 36 33 31 28 32 32 34 31 34 30 35 32 35 32 27 36 29 28 28 27 30 28 30 30 29 33 28 27 28 28 28 29 28 23 22 21 23 19 23 20 19 16 12 17 14 15 14 14 10 21 18 19 19 16 16 15 17 18 20 23 22 22 22
50 46 48 45 42 36 36 35 36 41 42 42 41 43 38 13 21 9 5 32 18 23 25 27 31 29 30 30 30 30 26 32 30 31 26 23 25 23 22 21 25 20 18 22 21 29 26 25 26 28 30 27 26 25 27 28 27 27 24 21 19 15 18 18 17 14 10 12 21 15 15 19 14 13 14 15 16 17 19 17 16 16 15 22 23 26 27 29
48 48 45 45 45 42 41 39 40 41 43 42 41 43 33 25 4 22 16 20 16 24 25 28 29 29 27 27 28 29 30 26 30 29 30 27 25 24 26 26 25 23 18 21 17 22 22 28 27 26 27 29 26 23 21 25 26 24 23 23 19 13 15 13 14 13 13 18 15 15 15 12 13 14 17 15 15 16 17 21 24 22 19 21 24 28 24 30
44 43 43 43 43 41 42 40 41 43 43 45 46 29 22 9 7 26 12 22 18 23 29 27 30 29 27 24 28 26 23 26 27 27 29 21 23 22 25 27 27 24 20 16 18 17 16 19 23 26 22 25 24 23 22 21 21 21 22 21 24 18 18 15 14 13 17 16 16 17 18 17 13 15 18 16 18 20 19 19 22 24 24 25 26 26 25 25
46 45 44 42 42 40 39 39 42 43 46 50 35 32 16 19 16 20 18 21 18 24 24 24 28 30 24 26 25 29 27 22 28 28 27 25 20 20 19 20 26 24 22 18 17 19 16 18 24 28 27 25 23 25 25 23 20 22 23 22 22 20 22 17 17 18 17 17 20 20 16 17 14 21 21 22 21 20 21 22 24 23 23 25 25 26 27 25
49 45 44 41 43 40 39 39 42 43 46 43 33 25 20 25 13 22 22 31 25 24 27 27 33 25 22 21 23 28 29 23 28 23 24 22 19 18 20 19 21 25 21 17 18 20 19 17 26 26 25 22 23 23 24 24 23 25 25 21 22 22 20 17 16 16 19 16 16 19 14 18 16 17 16 21 20 18 19 19 19 21 23 25 26 28 26 26
48 45 44 42 43 41 39 39 40 40 43 41 31 21 27 20 21 22 34 30 26 31 26 22 22 23 23 23 21 28 24 26 24 22 22 21 22 22 19 21 24 25 23 24 16 16 22 19 24 24 21 24 25 23 24 25 24 23 20 18 23 24 22 22 17 17 17 16 20 18 17 16 16 14 24 17 19 17 20 19 19 22 25 23 28 31 31 31
45 42 41 43 40 41 39 39 41 41 45 38 23 30 23 21 23 27 29 27 27 29 26 23 22 23 25 26 24 23 26 22 25 24 23 21 20 26 20 21 21 24 24 23 19 20 17 19 19 22 22 24 26 27 26 28 29 23 20 25 18 20 19 20 18 16 16 16 17 17 14 15 15 14 19 14 17 17 18 24 22 18 23 26 28 29 29 29
40 43 37 31 41 40 42 40 41 47 39 30 26 24 24 23 27 29 31 31 29 30 24 22 23 24 25 24 22 21 21 20 22 20 22 22 21 23 20 20 21 21 23 25 24 18 19 21 19 22 22 23 24 25 22 19 27 27 27 22 24 21 23 19 18 19 18 17 19 24 20 21 17 16 17 15 18 23 18 20 19 20 21 23 25 29 30 32
39 39 32 36 41 41 40 40 43 35 35 24 27 22 23 25 26 28 30 32 26 24 27 25 24 26 25 26 22 21 21 21 20 20 22 22 21 25 23 23 18 21 21 23 20 20 23 20 18 18 22 22 21 20 19 18 18 19 20 19 20 23 22 21 21 20 18 17 16 16 18 21 26 18 16 15 16 20 19 21 28 28 28 27 27 29 31 31
37 39 33 35 41 40 40 38 29 26 27 22 22 22 24 24 25 28 29 28 29 27 27 29 25 26 28 26 25 23 21 20 21 22 21 22 22 21 24 22 20 18 21 21 22 21 23 20 19 17 17 21 19 20 21 19 20 17 17 17 18 19 20 20 20 18 17 18 14 15 19 23 24 19 18 16 18 21 23 23 24 27 24 28 30 32 31 31
33 21 25 35 39 39 42 31 27 21 27 26 24 25 27 33 26 25 25 23 25 24 25 28 23 26 25 25 23 23 22 22 21 21 21 20 22 22 23 23 19 21 20 21 20 21 18 23 20 19 18 16 20 21 21 21 22 21 19 17 18 17 21 20 17 20 18 19 15 17 16 19 28 22 20 19 19 19 21 23 23 24 26 26 27 29 29 29
34 27 25 37 39 38 35 29 28 28 25 25 25 27 28 22 25 24 24 24 24 24 26 26 27 27 24 23 26 25 22 23 22 21 20 20 22 22 23 24 22 21 22 19 21 24 31 20 19 23 19 18 20 20 21 20 20 19 20 19 19 21 18 21 20 24 19 17 16 17 17 21 29 26 23 23 24 24 23 23 24 24 24 26 27 29 30 29
33 36 30 35 37 43 34 17 24 24 24 25 24 25 25 24 23 24 22 24 20 25 27 26 24 23 24 21 21 24 23 22 22 20 21 19 20 23 24 26 23 23 20 18 22 29 20 22 19 17 18 20 21 22 22 21 23 20 19 18 18 17 19 17 22 22 18 20 22 18 17 21 27 27 25 23 23 21 21 23 25 26 26 28 26 26 28 28
32 31 32 34 34 36 29 27 28 26 28 25 23 24 22 22 24 25 23 24 26 26 25 25 27 24 21 23 22 22 22 21 21 22 21 20 21 24 22 25 26 23 29 31 31 31 22 22 20 15 13 12 13 14 16 20 19 19 19 18 18 17 17 19 18 18 17 20 21 18 19 22 21 24 21 21 22 22 21 22 22 26 25 23 26 28 27 28
30 13 25 32 32 32 27 28 29 26 24 22 22 23 21 24 23 26 25 25 26 24 22 26 23 24 20 22 24 23 22 22 22 21 22 20 21 22 23 25 24 27 28 31 27 25 20 23 23 21 19 15 18 21 22 21 18 18 18 18 18 18 17 17 19 18 17 20 19 20 20 23 22 21 22 22 22 21 22 23 22 23 25 29 28 29 29 29
29 25 19 18 33 29 28 27 25 27 27 27 23 24 21 21 22 22 23 22 24 23 25 23 22 22 23 23 24 21 20 20 20 21 23 20 21 21 23 24 25 30 32 31 27 18 22 18 19 23 18 21 20 20 22 22 17 17 17 17 18 18 18 19 20 18 20 20 17 20 22 19 19 21 22 22 23 23 22 21 21 21 23 26 26 25 28 25
19 21 26 19 13 19 26 24 25 23 22 25 23 20 24 23 21 24 22 22 21 22 24 23 24 24 28 29 24 24 22 20 18 23 22 21 21 19 20 22 22 25 28 23 22 19 19 18 15 20 19 17 15 15 16 18 18 17 17 16 17 18 18 21 22 20 18 19 17 19 18 20 19 20 21 21 21 21 21 21 21 21 22 23 25 26 26 27
29 25 25 26 24 24 23 25 27 28 25 25 25 22 22 23 24 21 22 22 20 22 22 23 23 27 27 24 23 24 24 17 19 19 22 22 22 19 22 19 21 24 23 17 21 20 22 17 18 17 17 17 18 17 17 17 16 16 16 17 17 18 18 19 21 19 19 20 24 25 26 24 23 22 21 22 23 22 21 21 22 23 23 25 26 26 27 27
24 25 23 26 27 27 25 24 23 28 22 21 24 17 24 22 23 20 19 23 23 21 20 23 25 21 28 24 22 24 26 23 20 21 18 22 23 19 19 22 20 20 20 22 20 18 22 18 23 19 17 22 15 15 18 18 16 17 17 17 17 17 18 20 21 19 18 19 21 23 23 21 21 21 22 22 22 23 22 21 21 23 25 25 26 27 28 28
29 30 32 28 28 24 23 20 19 21 18 20 21 16 20 21 21 26 21 25 24 22 22 25 28 23 23 23 22 25 32 29 31 28 27 27 22 27 23 21 25 20 19 19 21 19 21 18 17 17 15 20 15 15 14 14 16 19 18 17 16 17 18 17 17 18 18 19 19 18 18 17 20 23 23 23 22 23 22 24 25 25 25 24 26 27 27 28
34 32 32 37 26 21 24 18 18 15 18 26 24 22 22 29 28 22 20 23 26 27 28 30 26 26 23 22 25 30 31 30 30 30 28 27 28 27 27 26 27 22 20 18 16 20 21 18 16 14 15 18 20 12 15 18 21 20 21 23 22 17 17 17 18 19 21 20 17 20 17 21 24 25 22 22 24 25 25 23 26 28 29 27 26 25 26 27